TimeEST,TemperatureF,Dew PointF,Humidity,Sea Level PressureIn,VisibilityMPH,Wind Direction,Wind SpeedMPH,Gust SpeedMPH,PrecipitationIn,Events,Conditions,WindDirDegrees,DateUTC
12:53 AM,70.0,66.0,87,30.06,10.0,South,8.1,-,N/A,,Overcast,190,2013-12-23 05:53:00
1:19 AM,69.8,66.2,88,30.09,10.0,SSW,8.1,-,N/A,,Mostly Cloudy,210,2013-12-23 06:19:00
1:53 AM,71.1,66.0,84,30.07,10.0,SSW,8.1,-,N/A,,Overcast,210,2013-12-23 06:53:00
2:53 AM,71.1,66.9,87,30.05,10.0,SSW,9.2,-,N/A,,Overcast,200,2013-12-23 07:53:00
3:53 AM,73.0,68.0,84,30.04,10.0,SSW,12.7,-,N/A,,Overcast,200,2013-12-23 08:53:00
4:53 AM,72.0,68.0,87,30.03,9.0,South,10.4,-,0.00,,Overcast,190,2013-12-23 09:53:00
5:53 AM,73.0,68.0,84,30.02,10.0,South,12.7,-,0.00,,Overcast,190,2013-12-23 10:53:00
6:02 AM,73.4,66.2,78,30.04,10.0,South,15.0,-,N/A,,Overcast,190,2013-12-23 11:02:00
6:18 AM,73.4,66.2,78,30.04,10.0,SSW,16.1,24.2,N/A,,Overcast,200,2013-12-23 11:18:00
6:53 AM,73.0,66.9,81,30.04,10.0,South,15.0,23.0,N/A,,Overcast,190,2013-12-23 11:53:00
7:48 AM,71.6,68.0,88,30.07,2.5,SSW,13.8,20.7,0.03,Rain,Rain,200,2013-12-23 12:48:00
7:53 AM,72.0,68.0,87,30.05,4.0,South,11.5,23.0,0.03,Rain,Light Rain,190,2013-12-23 12:53:00
8:04 AM,71.6,68.0,88,30.07,10.0,SSW,12.7,-,0.00,,Overcast,200,2013-12-23 13:04:00
8:53 AM,73.0,68.0,84,30.06,10.0,SSW,12.7,-,0.01,,Overcast,210,2013-12-23 13:53:00
9:53 AM,73.9,68.0,82,30.07,10.0,SW,12.7,20.7,N/A,,Overcast,220,2013-12-23 14:53:00
10:34 AM,75.2,66.2,73,30.08,10.0,SSW,18.4,24.2,N/A,,Mostly Cloudy,210,2013-12-23 15:34:00
10:53 AM,75.9,66.0,71,30.06,10.0,SW,15.0,23.0,N/A,,Mostly Cloudy,220,2013-12-23 15:53:00
11:07 AM,71.6,62.6,73,30.08,10.0,West,17.3,26.5,N/A,,Overcast,260,2013-12-23 16:07:00
11:11 AM,71.6,62.6,73,30.09,2.5,WSW,16.1,26.5,0.04,Rain,Rain,250,2013-12-23 16:11:00
11:15 AM,69.8,62.6,78,30.09,1.8,WSW,16.1,-,0.06,Rain,Rain,250,2013-12-23 16:15:00
11:21 AM,69.8,62.6,78,30.08,3.0,WSW,12.7,-,0.07,Rain,Light Rain,250,2013-12-23 16:21:00
11:53 AM,70.0,64.9,84,30.04,10.0,WSW,9.2,-,0.07,,Overcast,250,2013-12-23 16:53:00
12:53 PM,71.1,64.0,78,30.02,10.0,WSW,6.9,-,N/A,,Mostly Cloudy,240,2013-12-23 17:53:00
1:30 PM,69.8,64.4,83,30.02,1.8,West,8.1,-,0.05,Rain,Rain,260,2013-12-23 18:30:00
1:40 PM,68.0,64.4,88,30.03,2.5,WSW,10.4,-,0.07,Rain,Light Rain,250,2013-12-23 18:40:00
1:53 PM,68.0,64.9,90,30.00,1.8,WSW,8.1,-,0.12,Rain,Rain,240,2013-12-23 18:53:00
2:00 PM,68.0,64.4,88,30.01,3.0,WSW,5.8,-,0.01,Rain,Light Rain,240,2013-12-23 19:00:00
2:53 PM,68.0,66.0,93,29.99,9.0,SW,4.6,-,0.03,Rain,Light Rain,220,2013-12-23 19:53:00
3:53 PM,68.0,66.0,93,29.99,10.0,SW,5.8,-,0.02,Rain,Light Rain,230,2013-12-23 20:53:00
4:10 PM,68.0,66.2,94,30.02,10.0,West,8.1,-,0.00,,Overcast,260,2013-12-23 21:10:00
4:18 PM,68.0,66.2,94,30.02,1.8,WSW,13.8,19.6,0.05,Rain,Rain,250,2013-12-23 21:18:00
4:30 PM,68.0,64.4,88,30.02,2.5,WSW,10.4,-,0.11,Rain,Light Rain,240,2013-12-23 21:30:00
4:37 PM,68.0,64.4,88,30.02,7.0,WSW,11.5,-,0.11,Rain,Light Rain,240,2013-12-23 21:37:00
4:51 PM,68.0,64.4,88,30.02,10.0,WSW,9.2,-,0.11,,Overcast,240,2013-12-23 21:51:00
4:53 PM,68.0,64.9,90,30.00,10.0,WSW,9.2,-,0.11,,Overcast,240,2013-12-23 21:53:00
5:07 PM,64.4,62.6,94,30.03,10.0,NW,19.6,24.2,0.00,Rain,Light Rain,310,2013-12-23 22:07:00
5:19 PM,64.4,60.8,88,30.04,10.0,NW,12.7,-,0.00,,Overcast,320,2013-12-23 22:19:00
5:46 PM,62.6,60.8,94,30.06,6.0,NW,13.8,-,0.00,Rain,Light Rain,320,2013-12-23 22:46:00
5:53 PM,61.0,59.0,93,30.06,7.0,NNW,15.0,-,0.00,Rain,Light Rain,330,2013-12-23 22:53:00
6:53 PM,57.9,55.9,93,30.08,9.0,North,9.2,-,0.01,,Overcast,350,2013-12-23 23:53:00
7:42 PM,57.2,55.4,94,30.09,5.0,North,8.1,-,0.03,Rain,Light Rain,360,2013-12-24 00:42:00
7:53 PM,57.9,55.9,93,30.09,6.0,North,8.1,-,0.03,Rain,Light Rain,350,2013-12-24 00:53:00
8:45 PM,53.6,50.0,88,30.12,9.0,North,15.0,-,0.03,Rain,Light Rain,360,2013-12-24 01:45:00
8:53 PM,53.1,50.0,89,30.11,10.0,North,10.4,-,0.03,,Overcast,360,2013-12-24 01:53:00
9:53 PM,52.0,50.0,93,30.11,7.0,North,8.1,-,0.02,Rain,Light Rain,360,2013-12-24 02:53:00
10:28 PM,51.8,48.2,88,30.13,10.0,North,4.6,-,0.01,,Overcast,360,2013-12-24 03:28:00
10:53 PM,52.0,48.0,86,30.11,10.0,North,12.7,-,0.02,,Overcast,10,2013-12-24 03:53:00
11:53 PM,51.1,48.0,89,30.10,10.0,North,6.9,-,0.00,Rain,Light Rain,360,2013-12-24 04:53:00